Date String (YYYY-MM-DD hh:mm:ss) UTC,Instrument flags,Ambient pressure (hPa),Sample flow (lpm),Bypass flow (lpm),Sample temperature (°C),Ambient temperature (°C),ASC tube jacket temperature (°C),LED temperature (°C),Box temperature (°C),Sample RH (%),Span deviation,Mass concentration (μg/m³),Mass concentration (μg/m³),Mass concentration (μg/m³)
DateTimeUTC,F1_M11,P_M11,Q1_M11,Q2_M11,T1_M11,T2_M11,T3_M11,T4_M11,T5_M11,U1_M11,ZSPAN_M11,X2_M11,X0_M11,X1_M11
2023-05-30 04:00:00,,0829.1,5.01,0.00,29.3,27.4,00.0,37.7,30.9,22.4,0000.0,0004.08,0009.78,0003.21
2023-05-30 04:01:00,,0829.1,5.00,0.00,29.3,27.6,00.0,37.7,31.0,22.2,0000.0,0004.07,0010.31,0003.20
2023-05-30 04:02:00,,0829.1,5.00,0.00,29.3,27.7,00.0,37.7,31.0,22.1,0000.0,0004.06,0010.46,0003.19
2023-05-30 04:03:00,,0829.1,5.00,0.00,29.3,27.8,00.0,37.7,31.0,22.1,0000.0,0004.06,0010.49,0003.19
2023-05-30 04:04:00,,0829.2,4.99,0.00,29.4,27.9,00.0,37.7,31.1,22.1,0000.0,0004.07,0010.80,0003.20
2023-05-30 04:05:00,,0829.3,5.00,0.00,29.4,28.0,00.0,37.7,31.1,22.2,0000.0,0004.02,0010.82,0003.19
2023-05-30 04:06:00,,0829.3,5.01,0.00,29.4,28.0,00.0,37.7,31.1,22.2,0000.0,0003.96,0010.80,0003.19
2023-05-30 04:07:00,,0829.3,5.00,0.00,29.5,28.1,00.0,37.7,31.2,22.1,0000.0,0003.98,0010.59,0003.18
2023-05-30 04:08:00,,0829.3,5.00,0.00,29.5,28.1,00.0,37.8,31.2,22.0,0000.0,0004.02,0010.50,0003.18
2023-05-30 04:09:00,,0829.4,5.00,0.00,29.5,28.2,00.0,37.8,31.2,22.0,0000.0,0003.99,0011.23,0003.16
2023-05-30 04:10:00,,0829.3,5.00,0.00,29.5,28.2,00.0,37.8,31.2,22.0,0000.0,0003.96,0011.23,0003.16
2023-05-30 04:11:00,,0829.3,5.00,0.00,29.6,28.3,00.0,37.8,31.3,22.0,0000.0,0003.96,0010.77,0003.15
2023-05-30 04:12:00,,0829.3,4.99,0.00,29.6,28.3,00.0,37.8,31.3,22.4,0000.0,0003.99,0010.39,0003.15
2023-05-30 04:13:00,,0829.3,5.00,0.00,29.6,28.3,00.0,37.9,31.3,22.4,0000.0,0003.98,0010.31,0003.15
2023-05-30 04:14:00,,0829.3,4.99,0.00,29.6,28.3,00.0,37.9,31.3,22.4,0000.0,0004.03,0010.72,0003.17
2023-05-30 04:15:00,,0829.3,4.99,0.00,29.6,28.3,00.0,37.9,31.3,22.3,0000.0,0004.07,0010.53,0003.18
2023-05-30 04:16:00,,0829.4,5.00,0.00,29.7,28.4,00.0,37.9,31.4,22.2,0000.0,0004.11,0010.78,0003.19
2023-05-30 04:17:00,,0829.4,5.00,0.00,29.7,28.4,00.0,37.9,31.4,22.2,0000.0,0004.15,0010.85,0003.20
2023-05-30 04:18:00,,0829.4,5.00,0.00,29.7,28.4,00.0,38.0,31.4,22.2,0000.0,0004.17,0010.38,0003.21
2023-05-30 04:19:00,,0829.3,5.01,0.00,29.7,28.4,00.0,38.0,31.4,22.3,0000.0,0004.15,0010.39,0003.21
2023-05-30 04:20:00,,0829.2,5.00,0.00,29.7,28.5,00.0,38.0,31.4,22.2,0000.0,0004.20,0009.80,0003.24
2023-05-30 04:21:00,,0829.2,5.00,0.00,29.8,28.5,00.0,38.0,31.5,22.2,0000.0,0004.20,0009.65,0003.24
2023-05-30 04:22:00,,0829.2,4.99,0.00,29.8,28.2,00.0,38.0,31.4,22.1,0000.0,0004.22,0009.63,0003.25
2023-05-30 04:23:00,,0829.2,5.00,0.00,29.7,26.3,00.0,37.9,31.2,22.1,0000.0,0004.22,0009.70,0003.26
2023-05-30 04:24:00,,0829.1,5.01,0.00,29.7,25.3,00.0,37.9,31.0,22.2,0000.0,0004.23,0009.75,0003.28
2023-05-30 04:25:00,,0829.1,5.01,0.00,29.6,25.3,00.0,37.8,30.9,22.3,0000.0,0004.21,0009.63,0003.30
2023-05-30 04:26:00,,0829.1,5.01,0.00,29.5,25.6,00.0,37.8,30.8,22.4,0000.0,0004.21,0010.21,0003.30
2023-05-30 04:27:00,,0829.2,4.99,0.00,29.4,25.9,00.0,37.8,30.9,22.6,0000.0,0004.24,0009.80,0003.32
2023-05-30 04:28:00,,0829.2,5.00,0.00,29.4,26.3,00.0,37.8,30.9,22.7,0000.0,0004.25,0010.24,0003.33
2023-05-30 04:29:00,,0829.2,5.00,0.00,29.4,26.6,00.0,37.8,30.9,22.7,0000.0,0004.28,0011.53,0003.35
2023-05-30 04:30:00,,0829.2,5.00,0.00,29.4,26.9,00.0,37.8,30.9,22.7,0000.0,0004.31,0012.29,0003.38
2023-05-30 04:31:00,,0829.2,5.00,0.00,29.4,27.1,00.0,37.8,31.0,22.8,0000.0,0004.33,0013.65,0003.38
2023-05-30 04:32:00,,0829.2,5.00,0.00,29.3,27.3,00.0,37.8,31.0,22.7,0000.0,0004.43,0014.60,0003.42
2023-05-30 04:33:00,,0829.2,5.00,0.00,29.4,27.4,00.0,37.8,31.0,22.7,0000.0,0004.48,0015.04,0003.44
2023-05-30 04:34:00,,0829.2,5.00,0.00,29.4,27.5,00.0,37.8,31.0,22.9,0000.0,0004.50,0015.01,0003.45
2023-05-30 04:35:00,,0829.2,5.00,0.00,29.4,27.6,00.0,37.8,31.0,22.9,0000.0,0004.47,0015.54,0003.44
2023-05-30 04:36:00,,0829.3,5.00,0.00,29.4,27.7,00.0,37.8,31.0,23.0,0000.0,0004.48,0015.85,0003.44
2023-05-30 04:37:00,,0829.3,5.00,0.00,29.4,27.8,00.0,37.8,31.1,23.1,0000.0,0004.48,0015.73,0003.44
2023-05-30 04:38:00,,0829.3,4.99,0.00,29.4,27.9,00.0,37.8,31.1,23.1,0000.0,0004.49,0015.85,0003.44
2023-05-30 04:39:00,,0829.4,5.01,0.00,29.4,27.9,00.0,37.8,31.1,23.0,0000.0,0004.52,0015.57,0003.45
2023-05-30 04:40:00,,0829.4,5.00,0.00,29.5,28.0,00.0,37.8,31.1,23.1,0000.0,0004.52,0014.75,0003.44
2023-05-30 04:41:00,,0829.3,5.00,0.00,29.5,28.0,00.0,37.8,31.2,23.2,0000.0,0004.52,0013.88,0003.43
2023-05-30 04:42:00,,0829.4,5.00,0.00,29.5,28.0,00.0,37.8,31.2,23.3,0000.0,0004.51,0012.78,0003.43
2023-05-30 04:43:00,,0829.4,5.00,0.00,29.5,28.1,00.0,37.8,31.2,23.3,0000.0,0004.43,0012.54,0003.41
2023-05-30 04:44:00,,0829.4,5.00,0.00,29.5,28.1,00.0,37.8,31.2,23.4,0000.0,0004.36,0012.06,0003.40
2023-05-30 04:45:00,,0829.4,5.01,0.00,29.6,28.1,00.0,37.9,31.2,23.4,0000.0,0004.38,0012.56,0003.40
2023-05-30 04:46:00,,0829.4,5.00,0.00,29.6,28.2,00.0,37.9,31.3,23.3,0000.0,0004.42,0012.64,0003.42
2023-05-30 04:47:00,,0829.3,5.00,0.00,29.6,28.2,00.0,37.9,31.3,23.4,0000.0,0004.40,0011.92,0003.42
2023-05-30 04:48:00,,0829.4,5.00,0.00,29.6,28.2,00.0,37.9,31.3,22.8,0000.0,0004.40,0011.37,0003.43
2023-05-30 04:49:00,,0829.4,5.00,0.00,29.6,28.3,00.0,37.9,31.3,22.6,0000.0,0004.34,0011.18,0003.42
2023-05-30 04:50:00,,0829.5,5.00,0.00,29.7,28.3,00.0,37.9,31.4,22.8,0000.0,0004.30,0010.80,0003.42
2023-05-30 04:51:00,,0829.5,4.99,0.00,29.7,28.3,00.0,38.0,31.4,22.4,0000.0,0004.23,0010.50,0003.40
2023-05-30 04:52:00,,0829.6,5.00,0.00,29.7,28.3,00.0,38.0,31.4,22.0,0000.0,0004.21,0010.52,0003.39
2023-05-30 04:53:00,,0829.6,5.00,0.00,29.7,28.4,00.0,38.0,31.4,21.6,0000.0,0004.22,0010.60,0003.40
2023-05-30 04:54:00,,0829.7,5.00,0.00,29.7,28.4,00.0,38.0,31.4,21.6,0000.0,0004.26,0010.12,0003.41
2023-05-30 04:55:00,,0829.7,5.01,0.00,29.8,28.4,00.0,38.0,31.5,21.6,0000.0,0004.29,0010.11,0003.41
2023-05-30 04:56:00,,0829.7,4.99,0.00,29.8,28.4,00.0,38.0,31.5,21.4,0000.0,0004.26,0010.30,0003.40
2023-05-30 04:57:00,,0829.7,5.00,0.00,29.8,28.4,00.0,38.1,31.5,21.0,0000.0,0004.23,0009.61,0003.39
2023-05-30 04:58:00,,0829.7,5.00,0.00,29.8,28.5,00.0,38.1,31.5,20.9,0000.0,0004.24,0009.74,0003.37
2023-05-30 04:59:00,,0829.7,5.01,0.00,29.8,28.5,00.0,38.1,31.5,20.8,0000.0,0004.24,0009.87,0003.38
